SCP
1 1 1 2 2 1 0 0 0 0 0 0 0 0 0 0 0 0 0 0 0 0 0 0 0 1 1 1 1 1 1 1 0 0 0 0 0 0 0 0 0 0 0 0 0 0 0 0 0
1 1 2 2 2 1 0 0 0 0 1 1 1 0 0 0 0 0 0 0 0 0 0 0 1 1 1 1 1 1 1 1 0 0 0 0 0 0 0 0 0 0 0 0 0 0 0 0 0
1 2 2 2 1 1 0 0 1 1 1 1 1 1 0 0 0 0 0 0 0 0 0 1 1 1 1 1 1 1 1 1 0 0 0 0 0 0 0 0 0 0 0 0 0 0 0 0 0
2 2 2 2 1 1 0 0 1 1 2 1 1 1 1 1 0 0 0 0 0 0 0 1 1 1 1 1 1 1 1 0 0 0 0 0 0 0 0 0 0 0 0 0 0 0 0 0 0
2 2 2 1 0 0 1 1 1 1 2 2 1 1 1 1 1 0 0 0 0 0 0 1 1 1 1 1 1 1 1 0 0 0 0 0 0 0 0 0 0 0 0 0 0 0 0 0 0
1 1 1 0 0 0 0 1 1 1 1 2 1 1 1 1 1 1 0 0 0 0 0 1 1 1 1 1 1 1 0 0 0 0 0 0 0 0 0 0 0 0 0 0 0 0 0 0 0
1 1 1 0 0 0 0 0 1 1 1 2 1 1 1 2 1 1 0 0 0 0 0 0 0 0 0 0 1 0 0 0 0 0 0 0 0 0 0 0 0 0 0 0 0 0 0 0 0
1 1 0 0 0 0 0 0 1 1 1 1 1 1 1 2 1 1 1 0 0 0 0 0 0 0 0 0 0 0 0 0 0 0 0 0 0 0 0 0 0 0 0 0 0 0 0 0 0
1 0 0 0 0 0 0 1 1 1 1 1 1 1 1 2 2 1 1 1 0 0 0 0 0 0 0 0 0 0 0 0 0 0 1 1 1 0 0 0 0 0 0 0 0 0 0 0 0
1 0 0 0 0 0 0 1 1 1 1 1 1 1 2 2 2 1 1 1 1 0 0 0 0 0 0 0 0 1 0 0 0 1 1 1 1 1 1 1 1 1 1 0 0 0 0 0 0
0 0 0 0 0 0 0 1 1 1 1 1 1 2 2 2 1 1 1 1 1 1 1 1 1 1 0 0 0 0 0 0 0 1 1 1 1 1 1 1 1 1 1 1 0 0 0 0 0
0 0 0 0 0 0 1 1 1 1 1 1 1 2 2 1 1 1 1 1 1 1 1 1 2 1 1 1 0 0 0 0 0 0 0 1 1 1 1 1 1 1 1 1 1 1 0 0 0
0 0 0 0 0 0 0 1 1 1 1 1 1 1 1 1 1 1 1 1 1 1 1 2 2 2 1 1 1 0 0 0 0 0 0 0 0 1 1 1 1 1 1 1 1 1 0 0 0
0 0 0 0 0 0 0 1 1 1 1 1 1 1 1 1 1 1 1 1 1 1 1 2 2 2 2 1 1 1 0 0 0 0 0 0 0 1 1 1 1 1 1 1 1 1 1 1 1
0 0 0 0 0 0 0 0 1 1 1 1 1 1 1 1 1 1 1 1 1 1 1 1 2 2 2 2 1 1 1 1 1 0 1 1 1 1 1 1 1 1 1 1 1 1 1 1 1
0 0 0 0 0 0 0 0 1 1 1 1 1 1 1 1 1 1 1 1 1 1 1 1 1 1 2 2 2 1 1 1 1 1 1 1 1 1 1 1 1 1 1 1 1 1 1 1 1
0 0 0 0 0 0 0 0 1 1 1 1 1 1 1 1 1 1 1 1 1 1 1 1 1 1 1 2 2 2 1 1 1 1 1 1 1 1 1 1 1 1 2 2 1 1 1 1 1
0 0 0 0 0 0 0 0 1 1 1 1 1 1 1 1 1 1 1 1 1 1 1 1 1 1 1 1 1 1 1 1 1 1 1 2 2 2 1 1 1 1 1 1 1 1 1 1 1
0 0 0 0 0 0 0 1 1 1 1 1 1 1 1 1 1 1 1 1 1 1 1 1 1 1 1 1 1 1 1 1 1 1 1 1 1 1 1 1 1 1 1 1 1 1 1 1 1
0 0 0 0 0 0 0 1 1 1 1 1 1 1 1 2 2 2 2 1 1 2 2 1 1 1 1 1 1 1 1 1 1 1 1 1 1 1 1 1 1 1 1 1 1 1 2 2 1
0 0 0 0 0 0 0 1 1 1 1 1 1 1 2 2 3 3 3 3 2 2 2 2 2 1 1 1 1 1 1 1 1 1 1 1 1 1 1 1 1 1 1 1 2 2 2 2 2
0 0 0 0 0 0 0 0 1 1 1 1 1 1 1 2 3 3 3 4 4 3 3 2 2 2 2 2 2 1 1 1 1 1 1 1 1 1 1 1 2 2 2 2 2 2 2 2 2
0 0 0 0 0 0 0 0 1 1 2 2 2 1 1 2 2 2 2 3 3 3 3 3 2 2 2 2 1 1 1 1 2 2 2 2 1 1 1 1 2 2 2 3 3 3 3 3 3
0 0 0 0 0 0 0 0 1 2 2 2 2 2 2 1 1 1 2 2 3 4 4 3 3 2 2 2 1 1 1 2 2 2 2 2 2 1 1 1 1 1 1 2 3 3 3 3 3
0 0 0 0 0 0 0 1 1 2 2 2 2 2 2 2 2 2 2 3 4 4 5 5 4 4 3 2 2 2 2 2 2 2 2 2 2 1 1 1 1 1 1 1 2 2 3 3 4
0 0 0 0 0 0 0 1 2 2 2 2 2 2 2 2 2 3 3 3 3 5 6 6 6 5 4 4 3 3 3 3 3 3 3 3 2 2 2 2 2 1 1 1 1 2 2 3 3
0 0 0 0 0 0 0 1 1 2 2 2 2 2 2 2 3 3 4 3 3 4 6 7 7 7 6 5 4 4 5 5 5 5 5 4 3 2 2 2 2 2 2 2 2 2 2 3 3
0 0 0 0 0 0 0 1 2 2 2 2 2 2 2 2 3 4 5 4 3 4 6 8 8 8 7 6 6 6 8 9 9 8 7 5 4 3 2 2 2 2 2 2 2 2 2 3 3
0 0 0 0 0 0 0 1 2 2 2 3 3 3 2 3 3 4 5 5 4 5 6 8 9 8 8 8 9 11 13 13 12 10 8 7 5 4 3 3 3 3 3 3 3 3 3 3 3
0 0 0 0 0 0 0 1 2 2 2 3 4 3 3 3 3 4 5 6 5 5 6 7 9 9 9 10 12 15 16 16 14 10 8 7 6 5 4 3 3 3 3 3 3 3 3 3 3
Wind_Speed
13 10 6 6 6 3 11 10 7 7 6 7 6 5 7 8 7 8 7 7 8 9 11 11 12 12 13 13 13 13 13 13 13 13 13 13 13 13 12 12 12 12 12 11 11 11 11 10 10
9 6 6 6 2 9 11 9 9 9 8 7 6 6 7 8 8 9 8 8 10 10 10 11 13 12 13 12 12 12 13 13 12 12 12 12 12 11 11 11 11 11 10 10 10 10 10 10 10
7 6 6 2 8 10 10 9 9 9 6 4 5 6 7 7 8 7 9 11 11 11 10 12 12 12 13 12 12 12 12 12 11 11 12 12 11 10 10 10 10 10 9 9 9 9 9 9 9
5 6 5 2 12 11 8 8 8 8 6 5 5 8 8 7 5 9 12 11 11 12 11 13 11 12 12 11 11 11 11 11 11 11 11 11 10 10 9 9 9 9 8 8 8 8 8 8 8
6 5 1 8 12 9 8 7 5 5 6 6 6 9 10 7 9 13 12 10 11 11 11 13 11 11 11 10 10 10 10 10 10 10 10 10 9 9 8 8 8 8 7 7 7 7 7 7 7
5 4 4 9 11 8 7 6 5 7 8 7 7 10 9 9 11 11 11 10 10 11 11 13 12 11 10 9 9 9 10 10 9 9 9 9 9 8 8 7 8 8 7 7 7 7 6 6 6
5 3 6 8 8 8 7 4 4 6 7 7 6 8 10 11 11 11 10 9 9 10 10 10 11 11 9 8 7 8 9 9 9 8 8 8 8 8 7 7 6 7 6 6 6 6 6 6 6
5 3 5 7 7 9 7 5 4 4 8 7 4 6 10 13 12 11 10 9 8 8 9 9 8 9 8 9 8 7 8 8 8 7 7 7 8 8 7 7 6 6 6 5 5 5 6 5 6
6 2 6 8 6 6 6 5 5 5 8 6 4 5 13 17 14 12 11 10 9 8 7 8 9 8 6 7 9 8 8 8 7 7 7 6 5 6 6 5 6 5 5 5 5 5 5 6 7
4 3 8 6 5 4 5 4 6 6 8 8 9 11 16 16 15 13 12 11 11 10 9 7 7 7 7 5 6 4 5 6 4 4 5 4 3 2 3 7 6 5 5 5 6 6 7 8 6
2 3 4 3 3 3 5 5 6 5 6 7 12 16 17 16 14 12 11 11 11 10 9 9 8 6 6 4 4 3 3 4 4 4 3 2 2 3 3 3 5 5 6 5 7 7 5 4 2
2 1 2 1 2 3 3 5 5 3 6 7 12 17 17 16 14 12 11 11 10 10 9 9 8 6 5 4 4 4 3 3 3 4 4 3 2 1 2 1 2 3 2 2 2 3 3 3 3
3 1 1 0 2 3 4 5 4 5 7 10 14 16 16 15 13 11 10 10 10 10 9 9 8 7 6 4 4 4 3 3 4 3 3 3 2 2 2 2 1 2 2 3 2 2 3 3 4
1 2 1 2 3 4 5 5 5 6 9 12 14 15 15 14 14 12 11 11 10 10 10 9 9 8 7 5 4 3 4 3 3 4 4 4 2 2 2 2 2 2 2 2 2 3 3 3 2
3 4 4 4 4 4 5 6 6 8 10 12 14 14 14 14 13 13 12 11 11 10 10 9 9 9 8 7 6 4 4 5 4 3 4 4 4 3 3 2 2 2 2 2 3 3 3 3 4
7 7 6 5 5 4 7 3 7 9 11 12 13 13 14 13 14 13 12 11 11 10 10 10 9 9 8 6 5 4 4 4 4 4 4 5 4 4 3 3 3 2 3 2 2 3 2 2 3
9 7 5 4 5 4 7 2 7 9 11 11 12 13 14 14 14 13 13 12 11 11 11 10 9 9 9 8 6 5 4 4 4 4 4 4 5 5 5 3 2 3 3 2 3 2 2 3 3
6 7 6 5 4 6 8 5 5 9 10 11 12 13 14 14 15 14 13 13 12 11 11 11 10 9 8 7 6 5 5 5 5 4 4 5 5 5 5 4 3 4 3 3 3 3 3 4 4
8 9 8 4 3 7 8 7 6 9 11 11 12 13 14 14 14 14 14 13 13 12 12 11 11 10 8 7 7 6 6 5 5 5 5 5 5 5 4 3 3 4 4 4 4 3 4 4 3
10 11 9 5 4 7 8 8 7 9 12 12 13 14 14 14 14 14 14 14 14 14 13 12 12 11 11 8 6 5 4 5 5 4 4 6 6 5 5 5 4 4 4 5 4 4 4 3 3
11 11 9 6 5 8 9 10 8 8 10 11 12 12 13 14 15 16 16 16 15 15 14 12 12 12 11 10 7 6 5 5 5 6 5 6 6 6 5 5 5 4 6 5 5 5 5 4 3
12 8 8 8 10 8 9 10 6 8 9 11 12 13 14 14 15 15 16 16 16 15 14 13 12 12 11 11 9 9 7 7 6 5 5 5 6 6 6 6 5 5 5 4 6 5 5 5 4
9 5 8 10 11 12 11 12 7 8 9 9 10 12 13 13 14 15 16 16 16 15 14 13 13 12 12 11 10 10 9 7 6 5 5 5 5 6 6 5 5 5 5 5 5 4 5 5 5
6 7 8 10 11 15 13 13 11 7 7 7 7 9 11 12 13 14 14 14 14 14 14 13 13 13 12 12 11 11 10 8 7 6 6 6 5 5 6 6 5 5 5 5 5 5 6 5 5
11 11 10 12 12 13 9 12 9 4 5 5 5 6 9 11 12 13 15 15 15 15 15 14 14 13 13 13 12 11 10 9 9 8 7 6 5 5 5 5 5 5 5 5 5 5 5 5 5
12 15 13 12 12 10 9 12 7 5 4 5 5 4 6 9 11 12 13 14 14 16 16 15 14 13 13 12 11 10 10 8 7 8 7 6 5 4 4 5 6 6 6 6 5 5 5 5 5
12 13 13 14 15 14 10 9 9 6 6 5 4 4 5 6 9 11 12 13 14 15 15 15 14 13 12 12 11 10 10 9 8 7 8 6 5 5 6 6 6 6 6 6 6 5 5 5 6
11 10 9 12 13 15 13 13 9 7 6 5 5 5 4 5 7 9 10 11 11 12 13 13 13 12 11 11 10 8 9 9 8 7 7 6 6 5 6 6 6 6 6 6 7 6 6 6 5
9 11 11 11 12 14 14 9 2 4 5 6 5 4 3 3 4 6 7 8 9 10 11 11 11 11 10 10 9 9 9 8 8 7 7 7 6 6 6 6 6 6 7 6 6 7 6 7 6
9 10 12 12 12 13 14 8 0 2 3 4 4 3 2 1 2 4 6 6 7 8 9 10 10 10 9 9 9 9 8 7 8 7 7 7 7 7 7 7 6 7 7 6 7 8 7 7 7
Wind_Direction
170 180 210 236 231 85 60 58 57 69 70 67 66 58 56 40 29 74 95 109 113 116 118 122 115 114 114 116 117 120 120 120 121 121 122 121 120 119 118 117 116 117 117 115 116 117 118 119 120
172 187 229 242 334 65 63 59 63 64 88 100 85 76 72 67 63 97 116 118 122 118 118 116 116 117 118 117 118 121 122 123 125 125 124 122 120 119 119 119 118 118 118 120 121 122 123 123 124
179 227 261 271 47 51 60 64 79 89 100 93 87 62 55 71 93 107 120 132 128 118 115 111 119 121 121 120 120 121 123 124 127 128 127 127 126 125 123 123 122 121 122 123 123 125 126 128 129
210 225 234 52 63 59 64 79 96 108 98 83 98 90 79 68 92 115 128 136 127 126 124 117 121 120 120 122 123 123 123 124 126 128 129 130 129 129 128 127 124 125 128 129 128 131 132 133 131
241 256 145 74 68 68 72 84 98 88 91 99 100 100 92 86 106 122 134 136 130 126 122 121 124 121 120 121 125 127 126 127 128 130 130 131 131 130 130 130 129 130 132 134 134 138 139 137 136
247 250 51 66 72 77 85 98 102 87 99 108 112 108 97 118 127 133 135 137 131 129 126 122 126 126 127 126 123 127 127 128 128 129 131 133 135 135 135 135 134 137 139 141 143 148 153 151 147
293 351 54 65 75 81 83 96 87 96 110 112 119 111 119 136 135 139 136 135 132 132 130 131 136 135 135 130 131 130 132 132 130 131 133 135 136 137 136 136 138 141 145 150 155 157 159 157 154
294 291 68 66 66 76 99 103 83 89 98 116 137 126 138 141 143 141 141 139 134 136 135 136 139 136 150 147 146 141 140 137 134 135 136 138 144 147 147 156 144 145 148 152 157 161 164 160 160
261 275 56 55 56 82 116 121 105 106 122 129 112 98 125 139 148 149 149 147 148 149 148 147 141 144 149 149 142 153 149 146 155 151 150 169 167 156 163 138 137 153 158 163 165 160 162 171 172
258 12 49 41 45 85 128 125 135 147 141 135 125 116 130 147 158 162 161 160 159 158 157 152 150 153 157 150 145 158 159 151 169 147 159 162 145 156 147 129 154 166 171 177 173 172 185 203 181
265 5 35 47 64 96 134 137 152 159 146 151 151 146 151 159 166 168 165 166 159 158 160 161 161 162 159 151 155 158 151 147 158 153 163 154 172 170 165 152 164 176 188 192 173 192 200 193 184
250 320 342 22 102 140 138 141 154 160 93 128 148 153 159 167 170 171 168 166 160 162 165 162 160 166 168 163 157 166 164 162 157 152 189 174 182 198 148 168 169 179 181 188 198 196 191 196 196
233 306 345 16 170 158 157 156 148 137 122 134 145 158 166 171 171 172 167 167 168 170 171 165 166 168 170 173 192 169 167 171 162 168 186 199 194 194 162 177 201 216 187 186 202 207 193 203 206
298 271 229 168 149 159 174 157 170 145 144 148 157 167 173 175 175 172 175 177 178 178 176 171 177 176 180 184 191 178 179 180 184 182 180 206 209 191 202 195 203 211 212 205 203 195 203 218 221
233 225 192 169 172 163 189 184 188 152 157 163 168 173 177 181 181 183 182 183 182 182 182 180 183 182 186 193 194 189 195 189 192 182 183 205 215 204 220 215 217 210 203 201 218 208 214 223 221
225 228 214 163 185 179 229 199 146 162 174 175 175 176 183 186 189 189 188 188 185 184 184 188 192 183 186 195 200 198 203 198 199 195 191 205 214 216 226 225 222 212 221 211 207 221 222 234 249
222 234 234 170 188 203 233 246 140 176 186 184 183 182 186 188 195 192 192 190 189 188 187 189 197 190 191 191 200 212 203 208 215 206 203 202 215 215 221 227 226 225 227 225 232 207 239 235 244
240 249 241 228 190 226 236 243 164 185 199 194 190 190 190 194 195 192 194 192 190 190 190 190 192 193 194 193 197 210 211 208 213 215 210 215 217 217 227 219 216 230 223 224 229 225 232 244 244
263 263 259 250 224 240 246 251 218 195 206 204 198 196 198 200 193 190 192 194 191 191 192 194 197 189 195 198 200 200 203 209 209 215 209 216 223 218 227 240 210 229 224 232 234 233 223 234 237
245 253 256 238 223 253 259 256 235 209 214 212 206 202 202 199 193 190 193 195 195 193 194 195 197 194 198 197 203 209 216 215 214 218 207 220 221 223 218 226 231 224 227 227 232 234 250 243 221
239 246 257 263 247 236 256 244 223 204 212 214 215 212 206 202 197 191 194 197 196 194 195 196 197 196 200 197 201 199 204 220 210 210 209 217 221 223 234 230 238 235 237 226 230 233 240 249 231
244 243 256 255 254 245 245 261 222 203 205 212 213 212 209 203 201 196 194 196 198 195 192 193 193 197 197 199 208 206 209 215 216 215 211 211 218 226 226 230 231 238 244 237 235 224 242 247 246
256 252 250 253 255 258 242 256 244 207 216 214 211 212 212 204 200 198 198 196 197 193 189 189 191 196 195 200 204 210 217 219 217 213 211 221 211 219 226 225 226 230 239 240 248 246 246 244 251
233 228 236 242 247 247 245 252 251 224 223 220 209 209 212 208 201 198 198 193 193 191 190 189 189 194 194 198 203 211 218 221 221 218 215 216 211 211 215 220 225 234 240 235 237 240 235 248 256
218 230 233 230 229 241 232 244 253 250 243 246 234 218 208 207 203 196 194 192 191 191 190 190 190 194 196 199 204 207 213 216 221 225 222 227 220 213 209 217 222 233 236 239 239 233 244 236 238
227 237 244 254 254 245 217 239 243 243 252 251 240 227 210 205 203 198 194 194 193 193 191 191 192 195 195 199 203 206 209 215 219 223 230 222 226 223 211 215 224 232 236 238 231 240 234 232 235
236 238 252 259 263 264 247 243 237 225 235 238 228 219 213 206 205 203 197 195 195 195 193 194 192 194 195 197 199 204 208 217 222 218 224 226 221 218 210 219 226 232 236 240 236 237 238 235 239
252 248 244 247 252 256 249 242 242 218 235 244 236 226 223 213 208 204 201 197 196 195 192 192 191 193 194 194 196 199 203 210 217 221 220 224 220 220 220 220 227 231 234 233 236 237 232 233 236
222 230 239 248 253 258 259 249 274 227 238 251 250 245 237 226 212 199 197 195 191 188 185 186 187 188 192 195 195 199 200 201 206 212 215 216 218 215 221 224 227 230 234 234 234 241 236 234 235
247 244 238 243 245 252 266 265 35 246 249 262 262 259 265 266 216 193 186 184 178 177 179 178 181 184 187 189 190 195 196 200 207 210 212 213 214 215 219 226 227 231 233 233 234 238 238 236 236